Temperature
20 20 20 20 18 18 19 20 21 21 21 21 21 21 20 19 19 18 18 18 18 18 18 18 18 18 18 18 18 18 18 18 18 18 18 18 18 18 18 18 18 18 18 18 18 18 18 18 18
20 20 20 19 18 19 20 21 21 21 22 22 21 21 20 19 18 18 18 18 18 18 18 18 18 18 18 18 18 18 18 18 18 18 18 18 18 18 18 18 18 18 18 18 18 18 18 18 18
20 20 20 18 19 19 20 21 21 22 23 22 21 20 20 19 18 18 18 18 18 18 18 18 18 18 18 18 18 18 18 18 18 18 18 18 18 18 18 18 18 18 18 18 18 18 18 18 18
20 20 20 18 19 20 21 21 21 22 23 22 21 20 19 19 19 19 18 18 19 18 18 18 18 18 18 18 18 18 18 18 18 17 17 18 17 17 17 17 17 17 17 17 17 18 18 18 18
20 20 18 19 20 20 21 22 22 22 22 21 20 19 19 19 19 19 19 19 19 18 18 18 18 18 18 18 18 18 17 17 17 17 17 17 17 17 17 17 17 17 17 17 17 17 17 17 17
20 18 18 19 20 21 21 22 22 22 21 21 20 19 18 19 19 19 19 19 19 18 18 18 18 18 18 18 17 17 17 17 17 17 17 17 17 16 16 16 16 16 16 17 17 17 17 17 17
20 18 19 19 19 20 22 22 22 21 21 21 21 19 18 19 19 19 19 19 19 19 18 18 18 18 18 17 17 17 17 17 17 16 16 16 16 16 16 16 16 16 16 16 16 17 17 17 17
20 17 19 19 20 21 22 23 23 22 21 21 21 19 19 19 19 19 19 19 19 18 18 18 18 18 18 17 17 17 17 17 16 16 16 16 16 16 16 16 16 16 16 16 16 16 16 16 17
20 17 18 19 20 21 22 23 23 22 22 21 21 21 20 20 19 19 19 19 18 18 18 18 18 18 18 17 17 17 17 17 16 16 16 16 16 16 16 16 16 16 16 16 16 16 16 16 16
20 17 19 20 20 21 22 22 22 22 21 20 20 20 20 20 19 19 19 19 19 19 18 18 18 18 18 17 17 17 17 17 16 16 16 16 16 16 16 16 16 16 16 16 16 16 16 16 16
19 18 20 21 22 22 22 22 22 21 20 20 20 20 20 20 20 19 19 19 19 19 19 19 18 18 18 17 17 17 17 17 16 16 16 16 16 16 16 16 16 16 16 16 16 16 16 16 16
20 20 21 21 22 22 22 22 21 21 21 22 22 21 20 20 20 20 19 19 19 19 19 19 18 18 18 17 17 17 17 17 16 16 16 16 16 16 16 16 15 15 15 15 15 15 16 16 16
20 21 21 22 22 22 23 22 22 22 22 22 21 21 21 20 20 20 20 20 20 19 19 19 19 18 18 18 17 17 17 17 16 16 16 16 16 16 15 15 15 15 15 15 15 15 15 16 16
21 21 22 22 22 22 22 22 21 21 21 21 21 21 21 21 20 20 20 20 20 20 19 19 19 18 18 18 17 17 17 17 16 16 16 16 15 15 15 15 15 15 15 15 15 15 15 15 16
21 21 21 21 21 22 22 20 20 21 21 21 21 21 21 21 21 20 20 20 20 20 19 19 19 18 18 18 17 17 17 16 16 16 16 16 15 15 15 15 15 15 15 15 15 15 15 15 15
21 19 19 20 21 21 21 19 20 21 21 20 20 21 21 21 21 21 20 20 20 20 19 19 19 18 18 18 17 17 17 16 16 16 16 15 15 15 15 15 15 15 15 15 15 15 15 15 15
19 18 19 20 21 21 20 19 20 21 20 20 20 21 21 21 21 21 20 20 20 20 20 19 19 18 18 18 17 17 17 16 16 16 16 15 15 15 15 15 14 14 14 14 14 14 15 15 15
18 18 19 19 20 20 19 19 19 20 20 20 20 20 20 20 20 21 20 20 20 20 20 19 19 19 18 18 17 17 17 16 16 16 16 15 15 15 15 14 14 14 14 14 14 14 14 14 15
19 19 19 19 20 20 19 19 19 19 20 19 19 19 20 20 20 20 20 20 20 20 20 19 19 19 18 18 18 17 17 16 16 16 15 15 15 15 15 14 14 14 14 14 14 14 14 14 14
20 19 19 20 20 19 18 18 19 19 19 19 19 19 20 20 20 20 20 20 20 20 20 19 19 19 18 18 18 17 17 16 16 16 16 15 15 15 15 14 14 14 14 14 14 14 14 14 14
20 19 19 19 20 19 19 18 18 18 19 19 19 19 19 20 20 20 20 20 20 20 19 19 19 18 18 18 17 17 17 16 16 16 16 15 15 15 15 14 14 14 14 14 14 14 14 14 14
20 21 21 20 19 18 19 17 18 17 17 18 18 18 19 19 20 20 20 20 20 19 19 19 19 18 18 18 17 17 17 16 16 16 16 15 15 15 15 14 14 14 14 14 14 14 13 13 14
20 21 21 20 18 18 18 17 17 17 17 17 17 18 18 19 19 19 19 19 19 19 19 19 18 18 18 17 17 17 17 16 16 16 16 15 15 15 15 15 14 14 14 14 14 14 14 13 13
21 20 20 18 17 18 18 17 17 16 17 17 17 18 18 19 19 19 19 19 19 19 18 18 18 18 17 17 17 17 16 16 16 16 16 15 15 15 15 15 14 14 14 14 14 14 14 13 13
20 18 18 18 17 17 18 17 17 17 17 17 17 17 18 19 19 19 18 18 18 18 18 18 18 17 17 17 17 16 16 16 16 15 15 15 15 15 15 15 14 14 14 14 14 14 14 14 14
20 18 18 18 17 17 18 17 17 18 18 18 18 18 18 18 18 18 18 18 18 18 17 17 17 17 17 17 16 16 16 16 15 15 15 15 15 15 15 14 14 14 14 14 14 14 14 14 14
20 18 18 17 18 17 17 17 17 17 17 17 17 17 17 18 18 18 18 18 17 17 17 17 17 17 16 16 16 16 16 15 15 15 15 15 15 15 14 14 14 14 14 14 14 14 14 14 14
20 19 17 17 17 17 18 17 16 16 16 16 16 17 17 17 17 17 17 17 17 17 17 17 16 16 16 16 16 16 15 15 15 15 15 15 14 14 14 14 14 14 14 14 14 14 14 14 14
21 20 18 16 17 17 17 17 18 17 17 16 16 17 17 17 17 17 17 17 17 17 16 16 16 16 16 15 15 15 15 15 15 15 15 14 14 14 14 14 14 14 14 14 14 14 14 14 14
21 20 18 18 18 16 16 17 18 17 17 17 17 17 17 17 17 17 17 16 16 16 16 16 16 15 15 15 15 15 15 15 14 14 14 14 14 14 14 14 13 13 13 13 13 13 14 14 14
Wind_Speed
4 1 2 2 4 4 2 1 1 3 3 4 8 9 9 6 5 7 3 9 10 8 10 11 12 12 12 12 12 12 11 11 10 10 10 10 10 9 9 8 8 8 7 7 6 6 6 5 5
2 0 2 3 4 4 2 1 2 3 6 7 8 9 8 7 6 7 5 10 11 9 10 11 12 12 12 11 11 11 10 10 9 9 9 9 8 8 7 7 7 7 6 6 6 5 5 4 4
2 1 2 3 3 4 3 2 3 4 5 5 5 6 5 5 6 5 8 12 11 9 10 12 13 12 12 11 11 10 9 9 8 8 7 7 7 7 7 6 6 6 5 5 5 5 5 4 4
1 3 3 4 3 1 4 3 4 5 4 5 7 6 4 3 5 9 13 13 12 8 10 12 13 12 11 11 10 9 8 8 7 7 6 6 6 6 5 5 5 4 4 4 4 4 4 4 4
2 3 4 3 2 0 1 2 4 6 4 6 10 7 4 3 11 14 13 12 12 8 9 11 13 12 11 10 9 9 7 6 6 5 4 4 4 4 4 3 3 3 3 3 3 3 4 4 4
3 4 4 3 2 1 1 3 6 9 9 9 9 7 3 5 11 12 12 11 11 10 9 11 12 12 11 10 9 8 6 5 4 3 2 2 2 2 2 2 2 2 2 3 3 4 4 5 5
3 4 3 2 3 1 1 3 6 7 6 5 7 6 4 5 9 11 11 10 9 9 8 8 9 10 10 9 8 7 6 4 2 1 0 1 2 2 3 3 3 4 3 4 4 5 6 6 6
4 4 3 1 3 2 1 2 5 8 6 6 6 8 6 6 9 10 10 9 8 7 6 6 7 7 7 7 7 6 5 3 2 2 3 3 3 4 4 5 5 5 5 6 6 7 7 7 8
4 5 2 2 4 3 2 4 4 6 8 4 5 6 9 11 10 10 7 6 6 7 6 5 6 6 6 6 6 5 3 2 2 3 4 4 4 4 4 5 5 5 5 6 7 8 8 8 8
4 4 4 3 4 4 4 5 4 6 9 7 8 7 10 11 10 10 8 7 7 7 6 6 6 6 6 6 4 3 2 1 2 2 3 3 3 4 4 5 5 5 6 7 8 8 8 7 6
4 5 3 2 3 4 4 5 4 8 6 9 12 12 11 10 10 10 9 8 7 6 6 7 6 6 5 3 3 2 1 1 0 1 2 2 3 4 3 4 5 6 6 6 8 7 7 5 4
3 3 3 1 2 4 5 5 4 6 7 11 14 14 11 10 10 10 9 8 7 7 7 7 6 5 3 3 2 2 1 1 1 2 3 3 2 3 2 2 3 4 4 4 5 4 5 5 4
3 3 2 3 4 4 7 6 6 4 7 10 11 11 11 10 9 8 8 8 7 7 7 7 6 5 3 3 2 2 2 2 1 3 4 5 3 2 2 2 3 4 4 3 3 3 4 4 4
4 3 3 2 2 3 7 5 5 4 9 10 10 8 8 8 9 7 7 7 7 8 7 6 7 6 4 3 2 2 2 2 3 4 5 7 5 3 3 3 3 4 4 3 2 2 3 3 3
4 4 3 1 1 1 6 6 2 3 10 10 8 7 8 8 8 9 8 7 8 8 7 7 7 5 5 4 3 2 3 4 3 3 5 7 6 5 3 3 3 4 6 5 4 4 3 4 4
3 4 2 3 1 2 7 2 2 1 10 8 7 6 7 7 7 7 8 7 7 7 6 6 6 5 5 4 3 2 3 4 3 3 4 6 6 6 4 3 3 4 5 4 3 3 3 4 4
4 3 2 2 1 3 5 3 2 1 9 8 6 6 6 6 5 5 7 8 7 7 6 5 5 5 4 4 3 3 3 3 2 2 2 4 5 5 4 2 3 4 3 3 4 3 2 3 5
4 3 2 1 1 6 6 3 1 1 7 7 6 5 6 6 5 5 6 6 6 6 6 6 5 4 4 3 3 3 3 2 1 1 1 2 2 3 3 2 3 3 3 4 3 3 3 2 3
5 5 4 3 2 5 6 4 2 2 5 5 5 5 6 5 3 5 6 6 6 5 5 5 5 3 3 2 2 2 1 1 1 1 1 0 0 1 2 1 2 3 2 3 3 2 3 3 3
5 5 4 1 3 5 7 5 2 3 3 5 6 6 6 5 4 4 5 5 5 5 4 4 4 4 3 2 2 1 1 1 1 1 2 2 2 1 1 0 1 2 2 3 3 2 2 3 2
4 6 6 5 4 4 6 5 3 3 4 6 5 5 5 6 5 4 4 4 4 3 3 4 4 3 3 3 3 3 3 3 3 3 2 3 3 3 2 2 1 1 1 2 3 2 1 2 2
3 6 9 8 6 1 3 2 3 1 4 5 4 4 4 4 4 4 4 3 3 3 3 3 3 3 2 3 3 3 2 0 2 2 2 4 4 3 3 3 2 2 2 2 3 1 1 0 2
5 5 7 6 6 4 3 4 4 1 2 2 3 4 4 4 5 4 3 3 3 3 4 3 4 3 2 2 3 2 1 1 2 2 3 4 4 4 4 3 2 2 2 3 3 2 1 1 1
5 5 6 6 5 1 3 4 4 4 6 4 3 4 4 4 5 4 4 4 4 4 4 4 4 3 2 1 1 1 0 1 2 3 3 3 3 4 4 3 2 3 3 3 3 3 3 2 2
5 6 4 3 3 3 2 3 6 6 7 8 8 6 5 5 5 5 5 4 4 4 3 3 4 2 1 1 1 1 1 1 1 2 2 3 3 3 4 3 3 3 4 4 3 3 3 3 3
4 8 7 5 4 2 1 3 4 3 6 6 7 6 5 5 5 5 5 4 3 3 2 3 2 1 1 2 2 2 1 0 1 2 1 2 2 3 4 4 4 5 4 4 3 3 3 3 3
5 3 6 6 3 1 1 1 3 3 6 6 7 7 6 5 5 5 4 3 2 2 1 2 2 1 2 2 2 3 2 1 1 2 1 2 2 3 4 4 4 5 5 4 4 3 4 3 3
6 7 6 5 4 2 2 3 6 8 9 8 8 7 6 5 5 5 4 3 2 1 1 2 2 1 2 2 2 3 2 2 2 2 3 4 4 3 4 5 4 5 5 4 3 4 4 4 4
3 3 4 4 5 6 4 6 7 13 13 12 10 9 8 7 6 5 3 2 2 2 2 3 2 2 2 2 2 3 3 3 3 3 4 4 4 4 4 5 5 5 5 4 4 4 4 4 4
6 6 7 5 4 4 5 6 3 11 11 11 10 8 8 7 6 5 4 3 2 2 2 2 2 2 2 2 2 2 3 3 4 4 5 5 5 5 5 5 5 5 5 5 4 5 4 4 4
Wind_Direction
276 307 85 57 53 55 46 311 149 78 45 59 77 81 81 58 81 117 149 129 127 123 116 113 112 110 106 103 101 98 95 90 86 83 82 81 81 79 76 73 70 68 67 63 63 65 65 60 54
293 216 75 56 76 79 15 273 102 114 137 119 90 82 77 71 83 107 123 137 130 126 122 117 113 111 108 104 103 101 97 93 88 84 81 78 76 74 72 69 65 66 63 58 54 51 51 49 40
284 222 89 66 84 132 158 223 129 106 122 112 87 59 68 99 111 126 149 142 130 124 123 123 116 112 109 107 104 101 98 95 90 86 82 77 73 70 67 64 60 60 57 51 45 39 38 32 23
44 47 54 72 86 164 163 179 124 101 66 71 96 72 55 78 120 135 141 136 128 127 130 130 123 119 116 113 110 106 101 97 91 86 82 76 70 65 60 55 50 47 42 39 35 27 23 15 6
68 73 64 77 96 44 145 148 121 104 82 81 92 91 68 50 112 130 139 136 133 135 138 136 131 127 124 120 116 113 109 105 100 94 85 75 61 53 49 40 34 26 17 12 9 358 349 344 340
50 64 84 111 107 19 39 91 89 93 108 105 100 103 92 114 123 136 141 140 141 145 146 144 140 136 133 129 125 123 120 117 114 107 92 58 23 13 3 345 332 337 339 334 328 321 316 316 318
105 94 111 134 119 74 101 113 115 117 114 118 121 102 122 136 140 141 144 143 144 146 146 149 149 147 145 142 139 139 137 139 143 147 172 327 323 316 294 285 283 298 306 310 309 308 308 307 305
131 99 86 106 124 174 229 92 114 115 102 119 114 125 154 176 151 135 135 140 146 148 151 157 157 158 158 157 159 161 161 170 202 271 284 300 310 312 293 280 273 286 300 302 301 301 301 301 300
96 85 142 185 159 185 140 93 70 82 96 86 88 130 154 151 136 124 122 127 146 157 165 165 168 174 180 183 186 182 186 209 258 303 305 314 319 314 299 290 274 288 305 308 307 306 305 306 304
92 126 196 197 188 164 122 114 107 91 94 93 94 111 133 139 137 139 146 153 157 160 170 171 171 180 191 195 185 200 226 253 269 305 313 325 325 315 301 300 294 301 313 317 320 321 319 321 313
124 161 207 217 175 136 107 90 86 114 126 150 147 151 150 147 149 155 163 166 169 166 160 165 168 173 173 170 166 176 210 198 300 341 335 3 17 3 354 336 328 325 325 328 332 336 330 328 319
133 188 173 152 67 96 107 104 99 124 168 167 157 157 156 157 164 169 167 167 164 153 154 156 155 150 152 142 137 155 158 114 37 21 36 44 28 19 7 354 344 341 335 330 330 331 330 331 326
157 178 156 108 72 87 97 107 122 124 144 149 150 151 158 161 165 167 167 167 148 137 136 140 140 139 135 111 104 103 108 100 74 44 50 64 55 30 18 4 11 4 356 345 332 333 337 339 335
178 158 114 96 69 87 97 81 89 148 144 147 146 146 152 153 153 149 155 150 145 142 140 137 130 137 126 109 103 101 99 95 77 60 64 68 64 49 35 17 10 3 354 346 346 342 338 331 337
123 96 54 0 108 148 96 50 63 162 139 140 146 147 140 138 142 148 158 154 153 150 145 140 136 130 118 111 105 100 98 95 79 67 66 64 60 56 51 29 9 348 354 360 3 354 357 355 352
70 71 67 309 127 121 102 118 285 143 130 137 148 146 135 136 142 146 148 143 146 143 141 139 133 123 117 111 99 95 93 96 85 76 65 59 56 58 53 31 360 350 3 7 360 1 357 350 345
51 113 176 314 323 113 110 148 278 136 126 135 143 141 133 132 135 146 149 146 145 140 134 127 125 123 120 110 99 92 84 86 95 88 72 61 55 54 55 34 357 1 7 4 357 6 355 338 334
175 158 175 203 27 98 103 122 15 104 124 138 139 134 133 136 151 149 145 143 141 137 132 125 116 119 117 99 82 59 52 45 54 73 84 72 49 48 49 28 3 8 8 356 355 347 344 326 322
159 149 165 218 166 96 102 98 48 41 105 120 124 131 132 145 141 123 121 127 125 125 127 130 126 125 114 95 93 77 32 334 340 296 274 325 357 32 51 17 358 6 360 333 337 341 346 337 342
157 144 156 130 114 108 106 86 56 65 113 146 145 147 147 133 107 112 116 116 126 132 135 144 148 144 141 125 136 152 165 267 279 308 314 286 267 288 273 316 327 347 348 341 342 353 352 335 5
178 171 165 151 101 89 95 37 22 16 69 95 110 131 133 138 141 140 122 115 113 118 137 150 161 150 146 114 84 57 44 21 7 348 322 299 282 279 274 266 275 304 303 301 306 314 5 327 333
187 186 165 151 116 112 116 124 305 357 65 89 102 106 121 130 125 125 118 115 119 122 113 118 131 134 131 117 107 107 99 3 267 282 295 302 299 290 277 268 267 281 279 287 294 295 238 205 316
183 156 143 131 117 80 62 117 270 279 104 123 127 125 129 131 126 122 119 130 113 103 104 101 100 98 103 118 131 125 130 243 293 316 324 321 317 306 292 276 273 281 272 271 284 299 280 218 227
139 85 71 59 77 89 211 143 234 221 190 171 151 144 138 127 120 111 95 87 71 66 77 83 91 83 78 102 121 130 187 292 332 331 327 321 318 313 303 286 276 276 269 266 265 265 267 255 245
96 98 69 34 29 248 194 148 231 216 180 166 163 160 152 130 122 110 99 89 77 71 70 76 84 67 29 34 12 334 275 259 267 287 297 305 313 309 303 295 281 276 272 271 265 257 266 258 254
162 136 149 167 193 259 58 196 257 192 158 147 145 143 135 127 128 125 126 124 116 110 92 88 87 56 12 11 350 353 11 1 289 284 287 278 276 281 293 292 293 291 288 284 272 259 259 254 255
135 161 164 135 146 129 271 310 340 96 132 137 138 133 137 138 134 129 120 117 120 117 102 108 103 48 4 1 8 15 17 16 328 317 324 303 296 304 302 305 311 306 302 294 281 267 265 261 257
151 151 110 124 152 174 220 222 212 193 178 164 159 153 152 145 136 130 128 129 119 106 82 70 75 61 23 19 23 31 10 357 347 351 339 327 314 315 319 320 318 317 314 311 295 280 276 274 272
152 136 129 131 155 153 197 252 215 190 180 170 170 165 159 155 147 143 141 136 118 85 71 65 55 47 34 30 27 21 5 3 5 1 345 334 327 322 317 316 318 315 314 312 316 298 290 283 285
165 174 152 154 199 169 172 253 258 175 169 162 160 160 159 153 149 143 135 118 101 88 71 65 65 63 40 43 43 25 11 11 7 349 340 345 341 332 324 324 323 316 314 312 311 307 296 285 284
Height
1511 1511 1510 1510 1512 1519 1522 1516 1510 1509 1509 1509 1508 1508 1512 1516 1519 1527 1525 1524 1525 1525 1526 1526 1526 1526 1526 1527 1527 1527 1527 1527 1527 1527 1527 1527 1527 1527 1527 1527 1527 1527 1527 1527 1527 1527 1526 1526 1526
1511 1511 1511 1511 1518 1529 1525 1514 1511 1509 1509 1509 1510 1512 1513 1518 1520 1522 1523 1525 1526 1526 1527 1527 1527 1527 1527 1527 1528 1528 1528 1528 1528 1527 1527 1527 1527 1527 1527 1527 1527 1527 1527 1526 1526 1526 1526 1526 1526
1511 1510 1511 1512 1519 1526 1522 1513 1509 1508 1508 1508 1511 1514 1517 1521 1522 1523 1524 1526 1527 1528 1528 1528 1528 1528 1528 1528 1528 1528 1528 1528 1528 1528 1528 1527 1527 1527 1527 1527 1526 1526 1526 1526 1526 1526 1526 1526 1526
1511 1512 1512 1517 1521 1517 1513 1510 1508 1508 1509 1510 1512 1517 1520 1523 1523 1524 1526 1528 1528 1529 1529 1529 1529 1529 1529 1529 1529 1529 1529 1528 1528 1528 1528 1528 1527 1527 1527 1527 1526 1526 1526 1525 1525 1525 1525 1525 1525
1511 1511 1516 1522 1519 1514 1510 1509 1508 1509 1511 1513 1513 1519 1523 1525 1525 1526 1528 1529 1530 1530 1531 1531 1531 1531 1530 1530 1530 1529 1529 1529 1529 1528 1528 1528 1528 1527 1527 1527 1526 1526 1525 1525 1524 1524 1524 1524 1524
1511 1512 1523 1527 1520 1513 1510 1509 1509 1511 1514 1515 1517 1521 1526 1527 1526 1528 1529 1530 1531 1531 1532 1532 1532 1532 1532 1531 1531 1531 1530 1530 1529 1529 1529 1528 1528 1528 1527 1527 1526 1526 1525 1524 1524 1523 1523 1523 1523
1512 1516 1522 1523 1521 1517 1512 1510 1511 1513 1514 1516 1517 1521 1526 1528 1529 1529 1531 1531 1532 1532 1533 1533 1533 1533 1533 1533 1532 1532 1532 1531 1531 1530 1529 1529 1529 1528 1527 1527 1526 1525 1525 1524 1523 1523 1522 1522 1522
1511 1516 1521 1522 1522 1518 1512 1510 1511 1512 1515 1517 1518 1521 1526 1528 1529 1530 1532 1532 1533 1534 1534 1535 1535 1535 1535 1534 1534 1533 1533 1532 1532 1531 1530 1530 1529 1528 1528 1527 1526 1525 1524 1524 1523 1522 1522 1521 1521
1511 1520 1525 1521 1520 1516 1512 1512 1513 1514 1516 1518 1519 1520 1524 1527 1530 1531 1532 1533 1534 1535 1535 1536 1536 1536 1536 1535 1535 1535 1534 1533 1532 1532 1531 1530 1529 1528 1528 1527 1526 1525 1524 1523 1523 1522 1521 1521 1520
1512 1522 1519 1514 1513 1512 1512 1513 1514 1517 1518 1520 1521 1523 1526 1528 1530 1531 1533 1534 1535 1535 1536 1537 1537 1537 1537 1536 1536 1535 1535 1534 1533 1532 1531 1530 1529 1528 1528 1527 1526 1525 1524 1523 1522 1521 1521 1520 1520
1511 1516 1513 1512 1511 1511 1512 1514 1515 1517 1521 1521 1522 1524 1527 1529 1530 1532 1533 1534 1536 1536 1537 1537 1538 1538 1537 1537 1537 1536 1536 1535 1534 1533 1532 1531 1530 1529 1528 1527 1526 1525 1524 1523 1522 1521 1520 1520 1519
1512 1511 1511 1511 1511 1512 1512 1514 1517 1517 1519 1520 1521 1524 1526 1529 1530 1532 1533 1535 1536 1537 1537 1538 1538 1538 1538 1538 1537 1537 1536 1535 1534 1533 1532 1531 1530 1529 1528 1526 1525 1524 1523 1522 1522 1521 1520 1519 1519
1511 1511 1511 1512 1512 1513 1513 1515 1517 1518 1520 1522 1523 1525 1527 1529 1531 1533 1534 1536 1537 1538 1538 1538 1539 1539 1539 1538 1538 1537 1537 1536 1535 1534 1532 1531 1530 1528 1527 1526 1525 1524 1523 1522 1521 1520 1519 1518 1518
1510 1510 1512 1513 1513 1514 1515 1518 1519 1521 1521 1522 1524 1526 1528 1530 1531 1533 1535 1536 1537 1538 1538 1539 1539 1539 1539 1539 1538 1538 1537 1536 1535 1534 1533 1531 1530 1528 1527 1526 1525 1523 1522 1521 1520 1519 1518 1517 1517
1510 1512 1514 1514 1514 1515 1516 1522 1522 1522 1522 1523 1525 1527 1528 1530 1532 1533 1535 1537 1538 1538 1539 1539 1539 1540 1539 1539 1538 1538 1537 1536 1536 1534 1533 1531 1530 1528 1527 1525 1524 1523 1521 1520 1519 1518 1517 1516 1515
1512 1518 1524 1518 1516 1517 1521 1533 1524 1523 1522 1524 1526 1527 1529 1531 1532 1534 1535 1536 1538 1539 1539 1539 1540 1540 1539 1539 1539 1538 1537 1537 1536 1534 1533 1531 1530 1528 1527 1525 1524 1522 1521 1519 1518 1517 1516 1515 1514
1521 1528 1528 1523 1517 1518 1522 1530 1525 1524 1523 1524 1526 1528 1529 1531 1533 1534 1536 1537 1538 1539 1539 1540 1540 1540 1540 1539 1539 1538 1537 1537 1536 1535 1533 1531 1530 1528 1526 1525 1523 1522 1520 1519 1517 1516 1515 1514 1513
1529 1529 1528 1527 1521 1520 1525 1529 1525 1525 1524 1525 1527 1528 1530 1532 1533 1535 1536 1537 1538 1539 1539 1540 1540 1540 1540 1539 1539 1538 1537 1537 1536 1535 1533 1531 1530 1528 1526 1524 1523 1521 1520 1518 1517 1515 1514 1513 1512
1519 1525 1529 1525 1521 1523 1528 1529 1527 1525 1525 1527 1528 1529 1530 1533 1535 1536 1536 1537 1538 1539 1539 1540 1540 1540 1539 1539 1538 1538 1537 1536 1536 1534 1533 1531 1530 1528 1526 1524 1523 1521 1520 1518 1516 1515 1513 1512 1511
1517 1525 1527 1524 1521 1525 1530 1531 1528 1527 1527 1527 1528 1529 1531 1533 1535 1536 1536 1537 1538 1538 1539 1539 1540 1539 1539 1539 1538 1538 1537 1536 1535 1534 1533 1531 1530 1528 1526 1524 1523 1521 1519 1518 1516 1515 1513 1512 1511
1519 1522 1524 1525 1524 1526 1530 1538 1535 1531 1528 1529 1529 1530 1531 1532 1534 1535 1536 1537 1538 1538 1539 1539 1539 1539 1539 1538 1538 1537 1536 1536 1535 1533 1532 1531 1529 1528 1526 1524 1523 1521 1519 1517 1516 1514 1513 1512 1511
1520 1513 1516 1521 1530 1539 1535 1551 1540 1535 1532 1531 1531 1531 1532 1533 1534 1535 1536 1536 1537 1538 1538 1539 1539 1539 1539 1538 1537 1537 1536 1535 1534 1533 1531 1530 1529 1527 1526 1524 1522 1521 1519 1517 1516 1514 1513 1512 1511
1513 1511 1515 1521 1530 1539 1540 1549 1546 1537 1536 1534 1532 1532 1532 1533 1533 1534 1535 1536 1537 1538 1538 1538 1538 1538 1538 1538 1537 1536 1535 1534 1533 1532 1531 1529 1528 1526 1525 1523 1521 1520 1518 1517 1515 1514 1512 1511 1510
1508 1514 1520 1527 1535 1548 1542 1548 1548 1540 1534 1533 1532 1532 1532 1532 1533 1534 1535 1536 1537 1538 1538 1538 1538 1538 1537 1537 1536 1535 1534 1533 1532 1531 1529 1528 1527 1525 1524 1522 1520 1519 1517 1516 1514 1513 1512 1511 1509
1512 1528 1544 1548 1554 1552 1538 1543 1543 1530 1528 1528 1530 1531 1531 1532 1533 1534 1535 1535 1536 1537 1537 1537 1537 1537 1537 1536 1535 1534 1533 1532 1531 1530 1528 1527 1525 1524 1522 1521 1519 1518 1516 1515 1513 1512 1510 1509 1508
1514 1523 1543 1554 1556 1551 1540 1544 1537 1526 1526 1527 1528 1530 1531 1532 1532 1533 1534 1535 1536 1536 1537 1536 1536 1536 1536 1535 1534 1533 1532 1531 1530 1529 1527 1526 1524 1522 1521 1519 1518 1516 1515 1513 1512 1510 1509 1508 1507
1515 1522 1522 1537 1543 1550 1547 1541 1533 1527 1528 1528 1528 1529 1530 1531 1532 1533 1534 1535 1536 1536 1536 1536 1536 1535 1535 1534 1533 1532 1531 1530 1529 1528 1526 1525 1523 1521 1519 1518 1516 1514 1513 1511 1510 1508 1507 1506 1505
1506 1513 1526 1536 1548 1555 1548 1545 1541 1532 1529 1528 1528 1528 1529 1531 1532 1533 1534 1535 1535 1535 1535 1535 1535 1534 1534 1533 1532 1531 1530 1528 1527 1526 1525 1523 1521 1519 1518 1516 1514 1512 1511 1509 1507 1506 1505 1504 1503
1509 1513 1520 1531 1535 1549 1555 1544 1519 1520 1521 1523 1525 1527 1528 1530 1531 1532 1533 1534 1534 1535 1534 1534 1534 1533 1532 1531 1530 1529 1528 1527 1526 1524 1523 1521 1519 1517 1516 1514 1512 1510 1508 1507 1505 1504 1502 1501 1500
1501 1506 1516 1530 1534 1537 1543 1537 1511 1513 1516 1520 1523 1525 1527 1529 1530 1532 1532 1533 1533 1534 1533 1533 1532 1532 1531 1530 1529 1528 1527 1525 1524 1522 1521 1519 1517 1515 1513 1511 1510 1508 1506 1504 1503 1501 1500 1499 1498